STARLINK-1152, 45096

Orbit data source: Space-Track

STARLINK-1152, 45096 is a payload satellite owned by SpaceX/Seattle (US) in LEO that was launched on Wed, 29 Jan 2020 UTC via an FALCON 9 launch vehicle from the Air Force Eastern Test Range (AFETR). Payload-class satellites include a variety of spacecraft equipped with specific instruments for various scientific and technological missions. These include communications satellites like Starlink; space stations such as the ISS; scientific satellites like the Hubble; Earth observation satellites from companies like Planet Labs, Umbra, and HawkEye 360; GPS; miniature CubeSats for education and research; and military/defense satellites.

Loading next visibility...
Identifier
45096, 2020-006BE
Orbit
LEO
Country
Flag of USUS
Related business
Manufacturer
SpaceX/Seattle
Mission
Partially operational Commercial Communications
Bus & Motor
STARLINK, Unknown motor
Mass
260 kg wet, ~248 kg dry
Launch date (UTC)
2020-01-29 (6 years ago)
Launch vehicle
FALCON 9
Launch site
Air Force Eastern Test Range (AFETR)
Object type
Payload
Rocket body
Debris
Shape & HBR
Box + 1 Pan, 10.1 m
Radar Cross Section
13.562 m², Large (>1 m²)

Expand to show TLE details & history
Last TLE update: 16 hours ago

TLE from 16 hours ago
0 STARLINK-1152
1 45096U 20006BE  25340.55261225  .00017548  00000-0  65279-3 0  9991
2 45096  53.0465 282.0040 0004826  18.0432 342.0736 15.27599695323307
Epoch: 2025-12-06T13:15Z
TLE epoch observation values (Epoch: 2025-12-06T13:15:45.698Z)
Latitude
-0.00007°
Longitude
7.48484°
Altitude
480.726 km
Speed
7.628 km/s
True Right ascension
18h 48m 00s
True Declination
0° 00' 00"
Sunlit
Object was in daylight at epoch
Visualization orbit readout
Latitude
Unknown
Longitude
Unknown
Altitude
Unknown
Speed
Unknown
Apparent Right ascension
Unknown
Apparent Declination
Unknown
Sunlit
N/A
Visualization observer readout
Local Sidereal Time
03:14:39
Azimuth
Unknown
Elevation
Unknown
Doppler factor
Unknown
Orbital elements
Apogee altitude
486.576 km
Perigee altitude
479.953 km
Semi-major axis
6,861.402 km
Eccentricity
0.00048
Inclination
53.0465°
RAAN
282.004°
Arg. of periapsis
18.0432°
True anomaly
342.05657°
Mean anomaly
342.0736°
Eccentric anomaly
342.06509°
Mean motion
3.81877 °/min
Orbital period
94.27 mins
BSTAR
0.00065279
Loading maneuver chart data...
Computing Atmospheric mass density...

Documentation

Showing up to 5 results
|